DW5893 Weather Reports


time (UTC)temp
C
wind
direction
speed
KPH
gust
KPH
rain 1hr
cm
rain 24hr
cm
rain mn
cm
humidity
%
barometer
mb
20260502180544 19 360 29.0 0.0 0.00 0.00 0.00 34 1006.1
20260502164039 18 360 20.9 0.0 0.00 0.00 0.00 38 1005.8
20260502163539 18 360 20.9 0.0 0.00 0.00 0.00 36 1005.8
20260502163039 18 360 22.5 0.0 0.00 0.00 0.00 37 1005.8
20260502162538 18 360 24.1 0.0 0.00 0.00 0.00 36 1005.9
20260502162038 18 360 22.5 0.0 0.00 0.00 0.00 38 1005.9
20260502161538 17 360 22.5 0.0 0.00 0.00 0.00 39 1005.9
20260502160537 17 360 22.5 0.0 0.00 0.00 0.00 40 1005.7
20260502152032 16 360 12.9 0.0 0.00 0.00 0.00 46 1005.6
20260502151530 15 360 9.7 0.0 0.00 0.00 0.00 46 1005.7
20260502150531 15 360 11.3 0.0 0.00 0.00 0.00 46 1005.5
20260502130515 10 360 1.6 0.0 0.00 0.00 0.00 58 1005.5
20260502123515 8 360 1.6 0.0 0.00 0.00 0.00 58 1005.4
20260502123013 9 360 1.6 0.0 0.00 0.00 0.00 57 1005.4
20260502122513 9 360 1.6 0.0 0.00 0.00 0.00 57 1005.2
20260502122019 9 360 3.2 0.0 0.00 0.00 0.00 57 1005.2
20260502121515 8 360 3.2 0.0 0.00 0.00 0.00 57 1005.2
20260502120515 8 360 1.6 0.0 0.00 0.00 0.00 56 1005.2
20260502115515 8 360 1.6 0.0 0.00 0.00 0.00 55 1005.1
20260502115012 8 360 3.2 0.0 0.00 0.00 0.00 55 1005.1
20260502114512 8 211 1.6 0.0 0.00 0.00 0.00 55 1005.0
20260502114016 8 360 0.0 0.0 0.00 0.00 0.00 54 1004.9
20260502113512 8 360 0.0 0.0 0.00 0.00 0.00 54 1004.9
20260502113010 8 360 0.0 0.0 0.00 0.00 0.00 53 1004.8
20260502112511 9 360 1.6 0.0 0.00 0.00 0.00 53 1004.9
20260502112012 9 360 1.6 0.0 0.00 0.00 0.00 52 1004.7
20260502111510 9 360 3.2 0.0 0.00 0.00 0.00 52 1004.8
20260502110511 9 360 6.4 0.0 0.00 0.00 0.00 52 1004.6
20260502110010 9 360 8.0 0.0 0.00 0.00 0.00 52 1004.5
20260502105511 9 360 8.0 0.0 0.00 0.00 0.00 51 1004.6
20260502105010 10 360 8.0 0.0 0.00 0.00 0.00 50 1004.6
20260502104511 10 360 8.0 0.0 0.00 0.00 0.00 49 1004.9
20260502104009 10 360 11.3 0.0 0.00 0.00 0.00 48 1004.7
20260502103510 10 360 12.9 0.0 0.00 0.00 0.00 47 1004.6
20260502103013 10 360 11.3 0.0 0.00 0.00 0.00 48 1004.6
20260502102513 10 360 9.7 0.0 0.00 0.00 0.00 47 1004.7
20260502102008 10 360 8.0 0.0 0.00 0.00 0.00 47 1004.8
20260502101507 10 360 9.7 0.0 0.00 0.00 0.00 46 1005.0
20260502100508 10 360 11.3 0.0 0.00 0.00 0.00 45 1005.1
20260502091504 9 360 4.8 0.0 0.00 0.00 0.00 44 1004.7
20260502090502 10 360 4.8 0.0 0.00 0.00 0.00 43 1004.7
20260502071152 11 360 14.5 0.0 0.00 0.00 0.00 37 1005.7
20260502070552 11 360 14.5 0.0 0.00 0.00 0.00 37 1005.7
20260502070111 11 360 14.5 0.0 0.00 0.00 0.00 37 1005.7
20260502065550 11 360 14.5 0.0 0.00 0.00 0.00 38 1005.8
20260502065051 10 360 12.9 0.0 0.00 0.00 0.00 38 1005.8
20260502064550 10 360 12.9 0.0 0.00 0.00 0.00 38 1005.9
20260502064047 10 360 12.9 0.0 0.00 0.00 0.00 38 1005.9
20260502063546 10 360 12.9 0.0 0.00 0.00 0.00 38 1006.0
20260502063044 10 360 9.7 0.0 0.00 0.00 0.00 39 1006.0
20260502062542 9 360 6.4 0.0 0.00 0.00 0.00 40 1006.1
20260502062043 9 360 8.0 0.0 0.00 0.00 0.00 40 1006.1
20260502061543 9 360 8.0 0.0 0.00 0.00 0.00 40 1006.2
20260502061141 9 360 8.0 0.0 0.00 0.00 0.00 40 1006.3
20260502060542 9 360 9.7 0.0 0.00 0.00 0.00 39 1006.3
20260502060044 9 360 9.7 0.0 0.00 0.00 0.00 39 1006.4
20260502055544 9 360 9.7 0.0 0.00 0.00 0.00 38 1006.4
20260502055043 10 360 9.7 0.0 0.00 0.00 0.00 37 1006.5
20260502054557 10 360 9.7 0.0 0.00 0.00 0.00 37 1006.5
20260502054041 11 360 11.3 0.0 0.00 0.00 0.00 35 1006.6
20260502053539 11 360 12.9 0.0 0.00 0.00 0.00 35 1006.5
20260502053042 11 360 11.3 0.0 0.00 0.00 0.00 35 1006.6
20260502052538 11 360 12.9 0.0 0.00 0.00 0.00 35 1006.7
20260502052039 11 360 11.3 0.0 0.00 0.00 0.00 35 1006.7
20260502051539 11 213 11.3 0.0 0.00 0.00 0.00 35 1006.8
20260502051136 11 360 11.3 0.0 0.00 0.00 0.00 35 1006.9
20260502050536 11 360 11.3 0.0 0.00 0.00 0.00 35 1006.9
20260502050036 11 360 11.3 0.0 0.00 0.00 0.00 35 1006.9
20260502045536 11 360 11.3 0.0 0.00 0.00 0.00 35 1006.9
20260502045036 11 360 12.9 0.0 0.00 0.00 0.00 35 1007.0
20260502044535 11 360 12.9 0.0 0.00 0.00 0.00 34 1007.0
20260502044034 11 360 12.9 0.0 0.00 0.00 0.00 35 1007.0
20260502043534 11 360 11.3 0.0 0.00 0.00 0.00 35 1007.2
20260502043044 11 360 9.7 0.0 0.00 0.00 0.00 36 1007.2
20260502042533 10 360 6.4 0.0 0.00 0.00 0.00 38 1007.3
20260502042033 8 360 3.2 0.0 0.00 0.00 0.00 40 1007.3
20260502041553 8 360 4.8 0.0 0.00 0.00 0.00 40 1007.4
20260502041131 8 360 4.8 0.0 0.00 0.00 0.00 39 1007.4
20260502040532 9 360 4.8 0.0 0.00 0.00 0.00 39 1007.5
20260502040048 9 360 6.4 0.0 0.00 0.00 0.00 40 1007.5
20260502035532 8 360 6.4 0.0 0.00 0.00 0.00 40 1007.6
20260502035032 8 360 6.4 0.0 0.00 0.00 0.00 41 1007.7
20260502034532 8 360 6.4 0.0 0.00 0.00 0.00 41 1007.6
20260502034034 8 360 6.4 0.0 0.00 0.00 0.00 42 1007.7
20260502033530 7 360 4.8 0.0 0.00 0.00 0.00 42 1007.7
20260502033033 7 360 4.8 0.0 0.00 0.00 0.00 42 1007.8
20260502032529 7 360 4.8 0.0 0.00 0.00 0.00 42 1007.8
20260502032028 7 360 3.2 0.0 0.00 0.00 0.00 41 1008.0
20260502031528 7 360 4.8 0.0 0.00 0.00 0.00 41 1008.0
20260502031129 8 360 4.8 0.0 0.00 0.00 0.00 40 1008.1
20260502030529 8 360 4.8 0.0 0.00 0.00 0.00 40 1008.1
20260502030031 8 360 4.8 0.0 0.00 0.00 0.00 39 1008.1
20260502025528 8 360 4.8 0.0 0.00 0.00 0.00 39 1008.0
20260502025027 9 360 4.8 0.0 0.00 0.00 0.00 38 1008.0
20260502024527 9 360 6.4 0.0 0.00 0.00 0.00 37 1008.0
20260502024027 10 360 6.4 0.0 0.00 0.00 0.00 36 1008.1
20260502023527 10 360 6.4 0.0 0.00 0.00 0.00 35 1008.1
20260502023039 11 360 4.8 0.0 0.00 0.00 0.00 34 1008.0
20260502022526 11 360 4.8 0.0 0.00 0.00 0.00 33 1008.0
20260502022026 11 360 3.2 0.0 0.00 0.00 0.00 32 1008.0
20260502021526 12 360 3.2 0.0 0.00 0.00 0.00 29 1008.0
20260502021126 13 360 3.2 0.0 0.00 0.00 0.00 28 1008.0
20260502020525 14 360 3.2 0.0 0.00 0.00 0.00 28 1008.0
20260502020025 15 360 3.2 0.0 0.00 0.00 0.00 27 1008.1
20260502015526 15 360 3.2 0.0 0.00 0.00 0.00 26 1008.0
20260502015025 16 360 4.8 0.0 0.00 0.00 0.00 25 1008.1
20260502014530 16 360 6.4 0.0 0.00 0.00 0.00 26 1008.1
20260502014026 16 360 6.4 0.0 0.00 0.00 0.00 26 1008.1
20260502013523 17 360 6.4 0.0 0.00 0.00 0.00 26 1008.1
20260502013023 17 360 6.4 0.0 0.00 0.00 0.00 25 1008.1
20260502012523 18 360 6.4 0.0 0.00 0.00 0.00 24 1008.2
20260502012024 18 360 8.0 0.0 0.00 0.00 0.00 23 1008.2
20260502011523 18 360 8.0 0.0 0.00 0.00 0.00 23 1008.2
20260502011122 18 360 8.0 0.0 0.00 0.00 0.00 22 1008.3
20260502010522 18 360 8.0 0.0 0.00 0.00 0.00 22 1008.3
20260502010024 19 221 9.7 0.0 0.00 0.00 0.00 21 1008.5
20260502005522 19 360 9.7 0.0 0.00 0.00 0.00 21 1008.4
20260502005025 19 236 11.3 0.0 0.00 0.00 0.00 21 1008.4
20260502004523 19 360 9.7 0.0 0.00 0.00 0.00 20 1008.5
20260502004021 20 360 9.7 0.0 0.00 0.00 0.00 20 1008.6
20260502003520 20 360 8.0 0.0 0.00 0.00 0.00 20 1008.6
20260502003020 20 360 8.0 0.0 0.00 0.00 0.00 21 1008.7
20260502002521 20 360 9.7 0.0 0.00 0.00 0.00 20 1008.7
20260502002019 20 360 9.7 0.0 0.00 0.00 0.00 21 1008.7
20260502001518 20 360 9.7 0.0 0.00 0.00 0.00 20 1008.8
20260502001119 20 360 8.0 0.0 0.00 0.00 0.00 21 1008.8
20260502000519 20 360 9.7 0.0 0.00 0.00 0.00 21 1008.8
20260502000017 20 360 9.7 0.0 0.00 0.00 0.00 21 1008.8
20260501235518 20 360 9.7 0.0 0.00 0.00 0.00 21 1008.8
20260501235017 20 360 9.7 0.0 0.00 0.00 0.00 22 1008.9
20260501234517 20 360 9.7 0.0 0.00 0.00 0.00 22 1008.9
20260501234016 20 360 8.0 0.0 0.00 0.00 0.00 21 1008.9
20260501233515 20 360 9.7 0.0 0.00 0.00 0.00 20 1008.9
20260501233015 20 360 11.3 0.0 0.00 0.00 0.00 20 1009.0
20260501232519 20 360 11.3 0.0 0.00 0.00 0.00 21 1009.0
20260501232014 20 360 9.7 0.0 0.00 0.00 0.00 21 1009.0
20260501231514 20 360 11.3 0.0 0.00 0.00 0.00 21 1009.1
20260501231115 20 360 12.9 0.0 0.00 0.00 0.00 21 1009.1
20260501230516 20 204 11.3 0.0 0.00 0.00 0.00 21 1009.2
20260501230031 20 360 8.0 0.0 0.00 0.00 0.00 21 1009.2
20260501225515 20 360 8.0 0.0 0.00 0.00 0.00 21 1009.2
20260501225018 20 360 9.7 0.0 0.00 0.00 0.00 21 1009.2
20260501224512 20 360 11.3 0.0 0.00 0.00 0.00 21 1009.4
20260501224011 19 360 9.7 0.0 0.00 0.00 0.00 21 1009.4
20260501223511 20 360 8.0 0.0 0.00 0.00 0.00 20 1009.4
20260501223018 20 360 9.7 0.0 0.00 0.00 0.00 20 1009.6
20260501222510 20 360 9.7 0.0 0.00 0.00 0.00 20 1009.6
20260501222011 20 360 11.3 0.0 0.00 0.00 0.00 21 1009.6
20260501221509 19 360 11.3 0.0 0.00 0.00 0.00 23 1009.7
20260501221112 19 360 11.3 0.0 0.00 0.00 0.00 22 1009.8
20260501220509 19 360 11.3 0.0 0.00 0.00 0.00 21 1009.8
20260501220008 20 360 9.7 0.0 0.00 0.00 0.00 21 1009.8
20260501215507 19 210 9.7 0.0 0.00 0.00 0.00 22 1010.0
20260501215006 19 360 9.7 0.0 0.00 0.00 0.00 21 1010.0
20260501214506 19 360 8.0 0.0 0.00 0.00 0.00 22 1010.1
20260501214005 19 360 8.0 0.0 0.00 0.00 0.00 22 1010.2
20260501213504 19 360 9.7 0.0 0.00 0.00 0.00 23 1010.2
20260501213002 18 226 9.7 0.0 0.00 0.00 0.00 24 1010.3
20260501212502 18 360 9.7 0.0 0.00 0.00 0.00 23 1010.4
20260501212002 18 360 9.7 0.0 0.00 0.00 0.00 23 1010.5
20260501211501 18 360 8.0 0.0 0.00 0.00 0.00 22 1010.5
20260501211101 18 360 8.0 0.0 0.00 0.00 0.00 24 1010.5
20260501210501 18 360 8.0 0.0 0.00 0.00 0.00 23 1010.5
20260501205602 18 360 11.3 0.0 0.00 0.00 0.00 24 1010.7
20260501205102 18 360 12.9 0.0 0.00 0.00 0.00 25 1010.7
20260501204559 18 360 11.3 0.0 0.00 0.00 0.00 25 1010.7
20260501204058 18 360 9.7 0.0 0.00 0.00 0.00 24 1010.6
20260501203557 18 360 12.9 0.0 0.00 0.00 0.00 24 1010.7
20260501203056 18 360 11.3 0.0 0.00 0.00 0.00 25 1010.8
20260501202557 18 360 9.7 0.0 0.00 0.00 0.00 25 1010.8
20260501202059 18 360 8.0 0.0 0.00 0.00 0.00 25 1010.9
20260501201555 17 360 11.3 0.0 0.00 0.00 0.00 25 1011.0
20260501201053 18 222 12.9 0.0 0.00 0.00 0.00 25 1011.1
20260501200554 18 360 11.3 0.0 0.00 0.00 0.00 25 1011.1
20260501200053 18 360 9.7 0.0 0.00 0.00 0.00 25 1011.1
20260501195553 18 360 9.7 0.0 0.00 0.00 0.00 25 1011.2
20260501195052 17 360 11.3 0.0 0.00 0.00 0.00 25 1011.2
20260501194552 17 360 11.3 0.0 0.00 0.00 0.00 26 1011.3
20260501194051 17 360 12.9 0.0 0.00 0.00 0.00 25 1011.4
20260501193553 17 360 9.7 0.0 0.00 0.00 0.00 26 1011.3
20260501193051 17 360 9.7 0.0 0.00 0.00 0.00 27 1011.3
20260501192550 17 360 11.3 0.0 0.00 0.00 0.00 26 1011.3
20260501192051 17 360 11.3 0.0 0.00 0.00 0.00 26 1011.3
20260501191550 17 360 11.3 0.0 0.00 0.00 0.00 27 1011.3
20260501191050 17 360 9.7 0.0 0.00 0.00 0.00 26 1011.5
20260501190549 17 360 9.7 0.0 0.00 0.00 0.00 26 1011.5
20260501190048 17 360 9.7 0.0 0.00 0.00 0.00 26 1011.5
20260501185546 17 360 9.7 0.0 0.00 0.00 0.00 27 1011.7
20260501185045 16 360 11.3 0.0 0.00 0.00 0.00 27 1011.7
20260501184546 17 187 9.7 0.0 0.00 0.00 0.00 27 1011.7
20260501184045 16 360 8.0 0.0 0.00 0.00 0.00 28 1011.7
20260501183545 16 360 9.7 0.0 0.00 0.00 0.00 29 1011.8
20260501183044 16 360 11.3 0.0 0.00 0.00 0.00 27 1011.9
20260501182544 16 360 11.3 0.0 0.00 0.00 0.00 27 1011.9
20260501182043 16 360 9.7 0.0 0.00 0.00 0.00 28 1011.9
20260501181543 16 360 8.0 0.0 0.00 0.00 0.00 27 1011.9
20260501181042 16 360 8.0 0.0 0.00 0.00 0.00 27 1012.0